Location: Newark
(44.6768°N, 22.5302°E)
Time: 16:57:38
(UTC+00:00)

UKube-1 - Pass Details

Date: 07 July 2022
Orbit: 608 x 615 km, 98.4° (Epoch: 18 August)

Event Time Altitude Azimuth Distance (km) Brightness Sun altitude
Rises 22:00:34 0° 355° (N) 2,893 ? -22.4°
Reaches altitude 10° 22:03:44 10° 330° (NNW) 1,980 ? -22.4°
Maximum altitude 22:05:52 14° 300° (WNW) 1,741 ? -22.5°
Drops below altitude 10° 22:08:01 10° 270° (W) 1,970 ? -22.5°
Enters shadow 22:09:27 - 255° (WSW) 2,326 ? -22.6°
